Regional Weather Roundup
Issued by NWS Little Rock, AR

Home | Current Version | Previous Version | Text Only | Print | Product List | Glossary On
Versions: 1 2 3 4 5 6 7 8 9 10 11 12 13 14 15 16 17 18 19 20 21 22 23 24 25 26 27 28 29 30 31 32 33
000
ASUS44 KLZK 191405
RWRLZK

WEATHER ROUNDUP FOR ARKANSAS
NATIONAL WEATHER SERVICE LITTLE ROCK AR
800 AM CST SUN NOV 19 2017

NOTE: "FAIR" INDICATES FEW OR NO CLOUDS BELOW 12,000 FEET WITH NO
SIGNIFICANT WEATHER AND/OR OBSTRUCTIONS TO VISIBILITY.

ARZ001-003-010-029-191500-
NORTHWEST ARKANSAS

CITY           SKY/WX    TMP DP  RH WIND       PRES   REMARKS
FAYETTEVILLE   SUNNY     29  29 100 CALM      30.30R
FORT SMITH     SUNNY     38  34  85 SW3       30.33R
HARRISON       SUNNY     35  28  75 W6        30.27R WCI  30
BENTONVILLE    SUNNY     33  28  81 CALM      30.32R
ROGERS         SUNNY     33  29  85 W5        30.30R WCI  29
SILOAM SPGS    CLEAR     32  29  88 CALM      30.32R
HIGHFILL       SUNNY     35  29  78 NW6       30.31R WCI  30
SPRINGDALE     SUNNY     34  30  86 NW5       30.31R WCI  30
$$

ARZ004-005-016-191500-
NORTH CENTRAL ARKANSAS

CITY           SKY/WX    TMP DP  RH WIND       PRES   REMARKS
BATESVILLE     MOSUNNY   41  25  53 NW6       30.27R
FLIPPIN        SUNNY     38  25  59 NW7       30.29R
MTN HOME       SUNNY     37  28  70 VRB5      30.26R
$$

ARZ040-041-191500-
WEST CENTRAL ARKANSAS

CITY           SKY/WX    TMP DP  RH WIND       PRES   REMARKS
MENA           SUNNY     37  37 100 CALM      30.31R
MOUNT IDA      SUNNY     36  33  89 NW3       30.28R
$$

ARZ009-017-025-026-028-191500-
NORTHEAST ARKANSAS

CITY           SKY/WX    TMP DP  RH WIND       PRES   REMARKS
CORNING        FAIR      39  27  60 NW12      30.23R
JONESBORO      MOSUNNY   41  25  53 NW9       30.24R
NEWPORT        SUNNY     41  27  57 NW9       30.27R
WALNUT RIDGE     N/A     38  25  59 W9        30.24R
BLYTHEVILLE    SUNNY     41  32  70 N12       30.22R
$$

ARZ022-023-033-042-044-191500-
CENTRAL ARKANSAS

CITY           SKY/WX    TMP DP  RH WIND       PRES   REMARKS
LITTLE ROCK    SUNNY     42  33  70 NW9       30.30R
N LITTLE ROCK    N/A     43  31  63 N6        30.31R
JACKSONVILLE   SUNNY     43  29  59 NW3       30.28R
SEARCY         SUNNY     42  30  62 NW8       30.29R
HOT SPRINGS    SUNNY     41  37  86 NW3       30.29R
RUSSELLVILLE   SUNNY     34  34 100 CALM      30.30R
CLINTON        FAIR      37  32  81 CALM      30.29R
$$

ARZ036-191500-
EAST ARKANSAS

CITY           SKY/WX    TMP DP  RH WIND       PRES   REMARKS
WEST MEMPHIS   SUNNY     41  32  70 NW9       30.23R
$$

ARZ050-053-066-070-073-191500-
SOUTHWEST ARKANSAS

CITY           SKY/WX    TMP DP  RH WIND       PRES   REMARKS
ARKADELPHIA    FAIR      39  37  92 CALM      30.32R
CAMDEN         SUNNY     37  36  93 CALM      30.30R
TEXARKANA      SUNNY     42  36  79 NW5       30.32R
EL DORADO      SUNNY     43  37  79 NW6       30.31R
DE QUEEN       SUNNY     32  32 100 CALM      30.32R
$$

ARZ056-057-069-191500-
SOUTHEAST ARKANSAS

CITY           SKY/WX    TMP DP  RH WIND       PRES   REMARKS
PINE BLUFF     SUNNY     44  32  62 NW13      30.29R
STUTTGART      SUNNY     43  33  68 NW9       30.28R
MONTICELLO     SUNNY     45  32  60 NW5       30.27R

$$






USA.gov is the U.S. government's official web portal to all federal, state and local government web resources and services.